Regional Weather Roundup
Issued by NWS New Orleans/Baton Rouge, LA

Home | Current Version | Previous Version | Text Only | Print | Product List | Glossary On
Versions: 1 2 3 4 5 6 7 8 9 10 11 12 13 14 15 16 17 18 19 20 21 22 23 24 25 26 27 28 29 30 31 32 33 34 35 36 37 38 39 40 41 42 43 44 45 46 47 48 49 50
000
ASUS44 KLIX 191201
RWRLIX
NEW ORLEANS REGIONAL WEATHER ROUNDUP
NATIONAL WEATHER SERVICE NEW ORLEANS LA
700 AM CDT FRI SEP 19 2014

NOTE: "FAIR" INDICATES FEW OR NO CLOUDS BELOW 12,000 FEET WITH NO
      SIGNIFICANT WEATHER AND/OR OBSTRUCTIONS TO VISIBILITY.
      SKY/WX - SKY CONDITION AND SIGNIFICANT WEATHER.
      TMP - AIR TEMPERATURE.     DP    - DEWPOINT TEMPERATURE.
      RH  - RELATIVE HUMIDITY.   PRES  - PRESSURE.
      HI  - HEAT INDEX.          WCI   - WIND CHILL INDEX.

*  THESE STATIONS ARE NOT NWS OR FAA STATIONS AND ARE NOT UNDER
   NWS QUALITY CONTROL.

LAZ038-040-048-061>063-065>067-069-191300-
SOUTHEAST LOUISIANA

CITY           SKY/WX    TMP DP  RH WIND       PRES   REMARKS
N.O. AUDUBON     N/A     76  72  89 MISG        N/A
6HR MIN TEMP:  72; 6HR MAX TEMP:  78; 6HR PCP:  0.05;

N.O. INTL ARPT CLOUDY    76  68  76 E6        29.93R
6HR MIN TEMP:  74; 6HR MAX TEMP:  78; 6HR PCP: TRACE;

N.O. LAKEFRONT CLOUDY    76  70  82 SE8       29.93R
6HR MIN TEMP:  73; 6HR MAX TEMP:  76; 6HR PCP:  0.05;

N.O. DOWNTOWN* CLOUDY    75  66  73 E3        29.93R
6HR MIN TEMP:  73; 6HR MAX TEMP:  75; 6HR PCP:  0.19;

SLIDELL        CLOUDY    72  69  90 NE3       29.94R
6HR MIN TEMP:  72; 6HR MAX TEMP:  73; 6HR PCP: TRACE;

BATON ROUGE    PTCLDY    71  69  93 NE5       29.93R
6HR MIN TEMP:  71; 6HR MAX TEMP:  73; 6HR PCP: TRACE;

BOOTHVILLE     LGT RAIN  75  71  87 E16G23    29.94R
6HR MIN TEMP:  73; 6HR MAX TEMP:  75; 6HR PCP:  0.36;

BELLE CHASSE   CLOUDY    76  70  82 E6        29.92R
6HR MIN TEMP:  73; 6HR MAX TEMP:  76; 6HR PCP:  0.14;

BOGALUSA*        N/A     72  68  89 CALM      29.97R FOG
6HR MIN TEMP:  71; 6HR MAX TEMP:  74;

GALLIANO*      NOT AVBL
NEW ROADS*       N/A     72  70  94 E3        29.94R
6HR MIN TEMP:  71; 6HR MAX TEMP:  73;

GONZALES*        N/A     72  72 100 CALM      29.93R
6HR MIN TEMP:  72; 6HR MAX TEMP:  74; 6HR PCP:  0.02;

HAMMOND*       NOT AVBL
HOUMA*         PTCLDY    73  68  83 SE3       29.91S
PORT FOURCHON* CLOUDY    75  72  88 E17G23    29.94S

$$

MSZ070-080>082-191300-
SOUTHERN MISSISSIPPI

CITY           SKY/WX    TMP DP  RH WIND       PRES   REMARKS
MCCOMB         PTCLDY    70  68  93 NE3       29.96R FOG
6HR MIN TEMP:  69; 6HR MAX TEMP:  72; 6HR PCP:  0.01;

GULFPORT       CLOUDY    72  70  93 NE6       29.94R
6HR MIN TEMP:  71; 6HR MAX TEMP:  73;

BILOXI         CLOUDY    76  71  84 E6        29.95R
6HR MIN TEMP:  72; 6HR MAX TEMP:  76; 6HR PCP:  0.04;

PASCAGOULA     LGT RAIN  70  69  97 CALM      29.95S
6HR MIN TEMP:  70; 6HR MAX TEMP:  72; 6HR PCP:  0.02;


$$

COASTAL OBSERVATIONS
LAKE AND NEARSHORE STATIONS

STATION/POSITION TIME  TEMP    WIND        PRES    WAVE
                       AIR SEA DIR/SP/G            HT/PER
                 (UTC) (F)     (DEG/KT/KT) (MB)    (FT/S)
PASCAGOULA       1100   74     120/  4/  7 1013.7
WAVELAND YACHT   1100   75      80/ 10/ 11 1013.1
GRAND ISLE       1100   76 86   90/ 15/ 21 1013.4
SOUTHWEST PASS   1100   77 90   70/ 21/ 26 1012.9
NEW CANAL        1100   75 81   80/  7/  9 1013.5
SHELL BEACH      1100   78 79  110/ 17/ 20 1012.7

OFFSHORE STATIONS

STATION/POSITION TIME  TEMP    WIND        PRES    WAVE
                       AIR SEA DIR/SP/G            HT/PER
                 (UTC) (F)     (DEG/KT/KT) (MB)    (FT/S)
64 S DAUPHIN ISL 1056   77 84  100/ 12/ 14 1013.8    2/ 4

$$




USA.gov is the U.S. government's official web portal to all federal, state and local government web resources and services.